Location: Arrecife
(10.5858°N, 67.0742°W)
Time: 14:16:35
(UTC+00:00)

ARIANE 5 DEB (SYLDA) - Pass Details

Date: 08 December 2021
Orbit: 651 x 35573 km, 5.4° (Epoch: 19 January)

Event Time Altitude Azimuth Distance (km) Brightness Sun altitude
Rises 22:21:46 0° 262° (W) 7,064 9.9 -4.4°
Reaches altitude 10° 22:28:21 10° 257° (WSW) 4,070 8.5 -5.9°
Maximum altitude 22:35:37 46° 184° (S) 1,040 3.9 -7.5°
Drops below altitude 10° 22:39:12 10° 107° (ESE) 2,034 4.8 -8.3°
Enters shadow 22:40:04 - 103° (ESE) 2,453 5.1 -8.5°
